Date,TemperatureHighF,TemperatureAvgF,TemperatureLowF,DewpointHighF,DewpointAvgF,DewpointLowF,HumidityHigh,HumidityAvg,HumidityLow,PressureMaxIn,PressureMinIn,WindSpeedMaxMPH,WindSpeedAvgMPH,GustSpeedMaxMPH,PrecipitationSumIn
2014-1-19,31.0,31.0,31.0,26.0,26.0,26.0,81,81,81,29.59,29.59,10,10,16,0.00
2014-2-20,35.0,35.0,35.0,32.0,32.0,32.0,88,88,88,29.71,29.71,15,15,23,0.06
2014-6-2,80.0,75.3,71.0,72.0,68.5,65.0,91,80,68,30.01,29.85,11,7,23,0.17
2014-6-3,80.0,73.0,62.0,69.0,60.5,50.0,95,68,37,29.94,29.87,6,3,14,0.01
2014-6-4,65.0,60.6,57.0,61.0,55.5,52.0,97,84,63,29.93,29.79,8,2,13,0.93
2014-6-5,77.0,63.9,50.0,56.0,52.6,49.0,99,71,37,29.98,29.87,5,1,8,0.01
2014-6-6,81.0,68.1,53.0,59.0,52.8,50.0,92,62,36,30.00,29.94,3,0,8,0.00
2014-6-7,82.0,71.0,57.0,59.0,55.6,50.0,90,61,39,30.03,29.83,6,-98,11,0.00
2014-6-8,77.0,65.8,61.0,65.0,58.0,-99.9,97,80,58,29.99,29.76,2,0,6,0.66
2014-6-9,78.0,67.0,56.0,63.0,57.9,55.0,98,75,49,30.01,29.91,7,2,10,0.01
2014-6-10,74.0,66.5,59.0,64.0,60.2,57.0,95,81,67,29.92,29.83,10,3,19,0.00
2014-6-11,78.0,69.8,65.0,67.0,65.5,64.0,97,87,70,29.78,29.67,7,4,14,0.50
2014-6-12,67.0,65.4,64.0,66.0,64.4,63.0,98,97,97,29.73,29.72,2,1,6,0.26
2014-7-12,78.0,75.4,73.0,71.0,70.7,70.0,92,85,80,30.09,29.91,6,4,14,0.01
2014-7-13,83.0,74.1,71.0,74.0,67.8,63.0,97,79,53,29.93,29.85,9,2,19,0.20
2014-7-14,83.0,72.6,67.0,69.0,65.3,61.0,96,79,49,29.89,29.78,6,2,12,0.15
2014-7-15,66.0,64.0,63.0,65.0,62.2,61.0,97,94,94,29.81,29.80,0,0,3,0.15
2014-7-26,78.0,75.6,73.0,72.0,71.1,69.0,94,86,78,29.85,29.81,3,2,9,0.00
2014-7-27,85.0,69.6,64.0,73.0,65.4,60.0,99,84,66,29.83,29.66,3,1,15,0.69
2014-7-28,68.0,62.9,55.0,61.0,57.2,52.0,93,82,66,30.03,29.79,1,0,5,0.35
2014-7-29,77.0,59.8,47.0,61.0,53.5,46.0,98,82,56,30.05,29.99,5,1,8,0.00
2014-7-30,71.0,63.3,57.0,62.0,58.9,56.0,95,86,70,30.04,29.98,4,0,6,0.00
2014-8-11,71.0,69.3,69.0,69.0,68.2,68.0,95,94,92,29.87,29.85,0,0,1,0.07
2014-8-12,64.0,64.0,64.0,63.0,63.0,63.0,98,98,98,29.77,29.74,1,0,5,0.49
2014-9-23,74.0,60.0,42.0,57.0,50.6,41.0,98,74,49,30.36,30.29,2,0,6,0.00
2014-9-24,74.0,61.7,50.0,56.0,51.4,47.0,97,72,44,30.39,30.28,8,2,13,0.00
2014-9-25,78.0,64.3,52.0,61.0,53.6,49.0,94,71,38,31.21,30.22,5,1,10,0.00
2014-9-26,80.0,65.4,53.0,63.0,55.9,52.0,98,74,46,31.16,30.21,5,2,11,0.00
2014-9-27,78.0,65.8,52.0,66.0,57.4,51.0,98,76,50,30.27,30.16,6,1,11,0.00
2014-9-28,80.0,63.3,53.0,63.0,55.7,52.0,98,78,45,30.18,30.06,4,0,7,0.00
2014-9-29,81.0,63.5,49.0,63.0,56.1,48.0,99,80,47,30.06,29.91,2,0,6,0.00
2014-9-30,62.0,54.4,48.0,59.0,50.8,46.0,95,88,70,30.01,29.93,2,0,8,0.04
2014-10-1,67.0,57.8,48.0,56.0,51.7,46.0,96,81,62,30.05,29.96,7,2,14,0.01
2014-10-2,75.0,65.3,58.0,69.0,59.5,51.0,93,81,71,29.98,29.73,7,3,13,0.09
2014-10-3,69.0,60.0,46.0,67.0,56.7,42.0,97,89,67,29.75,29.46,8,3,20,0.86
2014-10-4,46.0,42.5,39.0,43.0,36.5,32.0,93,80,66,29.76,29.68,9,5,20,0.03
2014-10-5,56.0,47.1,40.0,44.0,37.9,35.0,87,70,45,29.77,29.67,11,5,22,0.01
2014-10-6,62.0,52.6,44.0,53.0,45.1,41.0,88,76,50,29.70,29.57,8,4,15,0.02
2014-10-7,63.0,51.1,44.0,57.0,47.7,40.0,97,88,79,29.80,29.65,7,3,14,0.38
2014-10-8,64.0,52.8,44.0,49.0,41.7,35.0,95,70,36,30.01,29.80,5,2,17,0.13
2014-10-9,65.0,52.9,42.0,46.0,41.6,37.0,85,67,41,30.11,29.99,5,1,9,0.01
2014-10-10,46.0,40.4,39.0,41.0,38.1,37.0,96,92,81,30.14,30.10,0,0,2,0.00
2014-10-11,61.0,46.5,35.0,43.0,37.8,34.0,97,75,40,30.23,30.12,4,0,9,0.00
2014-10-12,62.0,51.3,40.0,46.0,39.2,35.0,86,64,46,30.18,29.92,11,5,18,0.00
2014-10-13,75.0,65.1,55.0,67.0,60.6,46.0,99,86,64,29.92,29.67,10,4,19,0.27
2014-10-14,72.0,63.8,59.0,64.0,59.8,52.0,96,87,76,29.68,29.52,11,5,23,0.31
2014-10-15,58.0,56.1,53.0,55.0,53.4,52.0,97,91,83,29.77,29.66,6,2,11,0.01
2014-10-16,63.0,56.2,50.0,57.0,52.9,49.0,99,90,72,29.81,29.73,6,1,11,0.01
2014-10-17,65.0,56.1,51.0,53.0,51.1,49.0,95,84,64,29.77,29.58,7,4,13,0.05
2014-10-18,52.0,46.8,43.0,51.0,44.8,38.0,96,92,83,30.15,29.76,2,1,10,0.11
2014-10-19,55.0,43.0,31.0,43.0,37.2,30.0,98,80,60,30.22,29.96,7,2,13,0.01
2014-10-20,66.0,53.8,48.0,53.0,47.8,43.0,87,80,61,29.96,29.79,6,3,13,0.00
2014-10-21,53.0,48.4,40.0,46.0,43.4,37.0,92,83,75,30.23,29.93,2,1,7,0.00
2014-10-22,53.0,42.1,32.0,44.0,38.1,31.0,98,87,68,30.35,30.22,4,1,10,0.00
2014-10-23,59.0,44.9,30.0,47.0,39.0,29.0,98,82,56,30.28,30.09,4,1,8,0.01
2014-10-24,65.0,52.7,41.0,55.0,47.9,39.0,96,84,65,30.10,29.97,5,1,11,0.01
2014-10-25,71.0,58.4,49.0,58.0,48.4,39.0,94,73,31,29.95,29.85,4,2,12,0.01
2014-10-26,66.0,51.5,42.0,38.0,35.6,33.0,84,58,32,29.94,29.91,4,0,10,0.00
2014-10-27,75.0,62.7,42.0,63.0,48.5,35.0,88,61,44,29.93,29.65,12,6,24,0.01
2014-10-28,69.0,59.3,47.0,59.0,49.7,39.0,96,72,49,29.94,29.69,8,5,26,0.20
2014-10-29,44.0,42.9,42.0,40.0,38.7,38.0,90,85,79,30.11,30.07,2,0,7,0.00
2014-10-30,51.0,45.4,43.0,39.0,38.2,37.0,87,76,61,30.14,30.02,5,1,8,0.00
2014-10-31,45.0,39.4,33.0,41.0,36.0,27.0,95,88,78,30.19,29.91,4,2,12,0.18
2014-11-1,45.0,34.5,28.0,27.0,24.4,21.0,82,67,43,30.37,30.19,4,2,10,0.04
2014-11-2,52.0,35.1,21.0,31.0,24.6,19.0,97,69,35,30.43,30.26,6,2,13,0.00
2014-11-3,63.0,52.8,42.0,43.0,33.5,26.0,55,48,38,30.26,30.04,11,8,21,0.00
2014-11-4,57.0,44.7,42.0,46.0,41.5,34.0,94,89,41,30.09,29.97,8,4,16,0.26
2014-11-5,59.0,47.1,37.0,45.0,40.3,35.0,95,79,58,30.16,29.94,7,4,13,0.02
2014-11-6,47.0,44.2,40.0,46.0,41.0,31.0,96,89,70,30.10,29.75,6,3,15,0.06
2014-11-7,44.0,38.4,34.0,36.0,32.9,30.0,93,81,67,30.16,29.90,6,2,12,0.01
2014-11-8,45.0,40.5,36.0,41.0,35.1,32.0,91,80,75,29.93,29.73,8,3,14,0.01
2014-11-9,46.0,38.7,31.0,36.0,31.6,28.0,92,76,60,29.94,29.81,11,4,19,0.01
2014-11-10,59.0,50.4,42.0,44.0,39.5,36.0,82,67,53,29.86,29.65,12,5,20,0.00
2014-11-11,58.0,46.4,35.0,48.0,40.0,31.0,94,79,58,30.02,29.65,12,6,24,0.13
2014-11-12,35.0,30.7,27.0,31.0,24.9,21.0,85,78,73,30.24,30.01,4,2,11,0.08
2014-11-13,32.0,27.1,23.0,25.0,21.2,19.0,88,79,68,30.25,30.20,5,2,11,0.00
2014-11-14,35.0,28.1,22.0,25.0,22.5,19.0,90,79,65,30.34,30.22,4,2,11,0.01
2014-11-15,32.0,23.8,15.0,22.0,17.5,13.0,90,76,57,30.38,30.21,7,2,13,0.01
2014-11-16,31.0,28.9,26.0,28.0,25.7,22.0,96,88,78,30.21,29.88,5,2,8,0.00
2014-11-17,29.0,24.0,12.0,28.0,21.5,6.0,96,90,76,29.91,29.80,10,3,19,0.00
2014-11-18,18.0,14.2,11.0,12.0,8.4,5.0,85,78,70,30.14,29.91,12,8,27,0.00
2014-11-19,33.0,24.0,16.0,27.0,17.8,9.0,86,77,69,30.13,29.71,11,7,19,0.00
2014-11-20,30.0,22.9,18.0,17.0,13.4,10.0,85,67,47,30.18,29.95,10,5,17,0.00
2014-11-21,30.0,21.7,11.0,17.0,12.9,7.0,83,69,53,30.47,30.19,6,3,12,0.00
2014-11-22,52.0,40.4,26.0,47.0,35.9,16.0,95,82,61,30.26,29.93,12,7,19,0.21
2014-11-23,55.0,50.1,46.0,51.0,47.2,43.0,98,90,79,29.93,29.14,9,6,17,1.29
2014-11-24,55.0,41.0,31.0,53.0,38.8,28.0,98,92,87,29.78,29.07,21,12,32,1.29
2014-11-25,31.0,27.3,25.0,28.0,23.0,20.0,90,83,78,30.19,29.78,11,4,22,0.01
2014-11-26,28.0,26.3,24.0,24.0,21.9,20.0,87,83,78,30.19,30.07,6,2,10,0.00
2014-11-27,31.0,26.9,19.0,29.0,23.8,17.0,95,88,83,30.35,30.11,3,1,16,0.02
2014-11-28,32.0,23.5,15.0,25.0,19.2,13.0,94,83,74,30.35,29.98,7,3,14,0.01
2014-11-29,53.0,41.4,32.0,50.0,35.9,25.0,89,79,71,29.98,29.68,13,8,23,0.00
2014-11-30,59.0,50.7,37.0,56.0,48.4,35.0,95,92,87,30.15,29.70,11,5,18,0.04
2014-12-1,37.0,27.3,17.0,35.0,21.2,14.0,94,78,63,30.58,30.15,4,1,9,0.01
2014-12-2,32.0,26.7,17.0,30.0,23.1,15.0,95,86,79,30.54,30.06,10,4,16,0.00
2014-12-3,41.0,31.6,24.0,30.0,25.5,20.0,96,79,50,30.33,30.05,10,4,18,0.00
2014-12-4,33.0,28.5,23.0,26.0,23.7,20.0,92,82,73,30.40,30.27,7,3,14,0.00
2014-12-5,38.0,34.9,32.0,35.0,31.7,26.0,93,88,79,30.27,30.14,7,2,11,0.00
2014-12-6,40.0,33.9,26.0,34.0,30.0,23.0,92,85,71,30.60,30.16,3,1,10,0.00
2014-12-7,37.0,28.9,21.0,29.0,24.3,18.0,91,83,65,30.64,30.33,11,4,19,0.00
2014-12-8,39.0,34.3,30.0,36.0,31.0,26.0,97,88,79,30.33,30.01,9,4,15,0.09
2014-12-9,38.0,36.4,34.0,36.0,34.3,30.0,98,93,82,30.28,30.01,3,1,7,0.07
2014-12-10,36.0,28.6,23.0,31.0,24.5,22.0,95,80,72,30.31,30.18,2,0,6,0.01
2014-12-11,30.0,23.7,21.0,26.0,21.9,20.0,95,90,86,30.20,30.13,4,1,9,0.00
2014-12-12,25.0,24.3,24.0,23.0,22.8,22.0,94,94,93,30.20,30.18,5,4,11,0.00
2014-12-13,47.0,39.1,33.0,44.0,37.7,32.0,98,95,87,30.23,30.08,7,3,12,0.01
2014-12-14,55.0,45.9,43.0,49.0,43.4,41.0,95,90,78,30.12,30.04,7,3,13,0.01
2014-12-15,49.0,44.7,42.0,44.0,42.1,40.0,97,91,79,30.06,29.72,9,5,16,0.10
2014-12-16,44.0,41.9,34.0,43.0,40.9,32.0,98,97,95,30.03,29.63,9,3,16,0.45
2014-12-17,33.0,28.5,26.0,32.0,25.6,22.0,95,89,84,30.23,30.03,6,2,12,0.02
2014-12-18,27.0,26.7,26.0,24.0,23.4,22.0,90,87,86,30.26,30.22,5,2,8,0.00
2014-12-19,31.0,30.0,29.0,28.0,27.2,26.0,91,89,88,30.26,30.24,1,0,2,0.01
2014-12-20,33.0,26.8,26.0,29.0,24.4,25.0,95,90,84,30.27,30.22,2,0,6,0.01
2014-12-23,53.0,46.9,43.0,49.0,44.0,40.0,98,91,76,29.77,29.62,9,3,15,0.15
2014-12-24,42.0,39.3,34.0,41.0,38.3,33.0,98,96,94,29.70,29.38,9,2,15,0.55
2014-12-25,38.0,35.8,34.0,35.0,32.9,31.0,95,89,83,30.08,29.57,12,6,20,0.09
2014-12-26,43.0,36.0,34.0,38.0,33.4,32.0,93,90,83,30.10,30.05,9,7,16,0.00
2014-12-27,35.0,29.7,34.0,32.0,27.1,31.0,90,76,89,30.06,30.04,1,1,6,0.03
2014-12-28,35.0,31.9,23.0,31.0,28.2,22.0,95,86,75,30.22,30.03,4,1,9,0.01
2014-12-29,36.0,26.3,20.0,28.0,21.8,18.0,97,84,54,30.42,30.21,2,0,6,0.01
2014-12-30,25.0,19.4,14.0,21.0,14.5,8.0,91,81,64,30.57,30.42,4,1,9,0.01
2014-12-31,19.0,14.5,9.0,10.0,5.7,1.0,79,68,50,30.53,30.14,13,7,23,0.00
2015-1-1,28.0,22.5,16.0,19.0,13.5,9.0,76,68,57,30.15,29.96,13,9,24,0.00
2015-1-2,34.0,26.8,20.0,25.0,20.7,16.0,87,78,65,30.31,30.10,4,2,10,0.00